User: anonymous   Login
Location: Melbourne
(37.8170°S, 144.9670°E)
Time: 10:18:07
(UTC+11:00)
Language:

Explorer 11/Cluster Stage 4 - Orbit

View from above orbital plane
View from above orbital plane
View from above satellite
View from above satellite

Ground track
Ground track

The orbit data is extracted from the following two-line orbital elements,

1 00107U 61013A   14328.74516765  .00002804  00000-0  36597-3 0  1863
2 00107 028.7919 121.0010 0559342 258.4824 232.9209 14.05842636679178
Epoch (UTC): 24 November 2014 17:53:02
Eccentricity: 0.0559342
inclination: 28.7919°
perigee height: 468 km
apogee height: 1279 km
right ascension of ascending node: 121.0010°
argument of perigee: 258.4824°
revolutions per day: 14.05842636
mean anomaly at epoch: 232.9209°
orbit number at epoch: 67917

The dashed part of the orbit path shows where the satellite is in the earth's shadow,  

DLR